User: anonymous   Login
Location: Beugnon
(47.6222°N, 3.7850°E)
Time: 00:50:14
(UTC+00:00)
Language:

Resurs 01 Rocket - Orbit

View from above orbital plane
View from above orbital plane
View from above satellite
View from above satellite

Ground track
Ground track

The orbit data is extracted from the following two-line orbital elements,

1 23343U 94074B   20188.76258278 -.00000001  00000-0  71303-5 0  9994
2 23343  97.9976 241.5916 0008302  89.4183  22.7752 14.76828303381478
Epoch (UTC): 06 July 2020 18:18:07
Eccentricity: 0.0008302
inclination: 97.9976°
perigee height: 633 km
apogee height: 645 km
right ascension of ascending node: 241.5916°
argument of perigee: 89.4183°
revolutions per day: 14.76828303
mean anomaly at epoch: 22.7752°
orbit number at epoch: 38147

The dashed part of the orbit path shows where the satellite is in the earth's shadow,  

DLR